Tributaries of Elbe river

river Ploučnice - water gauge Benešov nad Ploučnicí

Date and time (UTC) H (cm) Q (m3/s)
5. 4. 2020 21:20 80 7
5. 4. 2020 21:00 79 6
5. 4. 2020 20:00 79 6
5. 4. 2020 19:00 78 6
5. 4. 2020 18:00 78 6
5. 4. 2020 17:00 79 6
5. 4. 2020 16:00 78 6
5. 4. 2020 15:00 77 6
5. 4. 2020 14:00 78 6
5. 4. 2020 13:00 77 6
5. 4. 2020 12:00 78 6
5. 4. 2020 11:00 78 6
5. 4. 2020 10:00 78 6
5. 4. 2020 09:00 78 6

H - water level, Q - discharge

river Ohře - water gauge Louny

Date and time (UTC) H (cm) Q (m3/s)
5. 4. 2020 21:20 215 32
5. 4. 2020 21:00 215 32
5. 4. 2020 20:00 215 32
5. 4. 2020 19:00 215 32
5. 4. 2020 18:00 214 31
5. 4. 2020 17:00 214 31
5. 4. 2020 16:00 214 31
5. 4. 2020 15:00 215 32
5. 4. 2020 14:00 215 32
5. 4. 2020 13:00 215 32
5. 4. 2020 12:00 215 32
5. 4. 2020 11:00 215 32
5. 4. 2020 10:00 215 32
5. 4. 2020 09:00 215 32

H - water level, Q - discharge

Vraňany

Date and time (UTC) H (cm) Q (m3/s)
5. 4. 2020 21:00 13 56
5. 4. 2020 20:00 12 55
5. 4. 2020 19:00 14 56
5. 4. 2020 18:00 11 54
5. 4. 2020 17:00 10 53
5. 4. 2020 16:00 20 62
5. 4. 2020 15:00 13 56
5. 4. 2020 14:00 2 47
5. 4. 2020 13:00 6 50
5. 4. 2020 12:00 7 51
5. 4. 2020 11:00 1 46
5. 4. 2020 10:00 1 46
5. 4. 2020 09:00 6 50

H - water level, Q - discharge

river Jizera - water gauge Předměřice

Date and time (UTC) H (cm) Q (m3/s)
5. 4. 2020 21:20 148 15
5. 4. 2020 21:00 148 15
5. 4. 2020 20:00 149 15
5. 4. 2020 19:00 149 15
5. 4. 2020 18:00 149 15
5. 4. 2020 17:00 149 15
5. 4. 2020 16:00 147 15
5. 4. 2020 15:00 146 15
5. 4. 2020 14:00 146 15
5. 4. 2020 13:00 147 15
5. 4. 2020 12:00 149 15
5. 4. 2020 11:00 148 15
5. 4. 2020 10:00 147 15
5. 4. 2020 09:00 149 15

H - water level, Q - discharge

river Cidlina - water gauge Sány

Date and time (UTC) H (cm) Q (m3/s)
5. 4. 2020 21:20 32 2
5. 4. 2020 21:00 32 2
5. 4. 2020 20:00 33 2
5. 4. 2020 19:00 33 2
5. 4. 2020 18:00 33 2
5. 4. 2020 17:00 33 2
5. 4. 2020 16:00 33 2
5. 4. 2020 15:00 33 2
5. 4. 2020 14:00 33 2
5. 4. 2020 13:00 33 2
5. 4. 2020 12:00 33 2
5. 4. 2020 11:00 32 2
5. 4. 2020 10:00 32 2
5. 4. 2020 09:00 32 2

H - water level, Q - discharge

river Orlice - water gauge Týniště nad Orlicí

Date and time (UTC) H (cm) Q (m3/s)
5. 4. 2020 21:00 79 8
5. 4. 2020 20:00 79 8
5. 4. 2020 19:00 80 8
5. 4. 2020 18:00 80 8
5. 4. 2020 17:00 80 8
5. 4. 2020 16:00 80 8
5. 4. 2020 15:00 80 8
5. 4. 2020 14:00 79 8
5. 4. 2020 13:00 81 8
5. 4. 2020 12:00 81 8
5. 4. 2020 11:00 81 8
5. 4. 2020 10:00 81 8
5. 4. 2020 09:00 81 8

H - water level, Q - discharge
Source data
Labe Basin Vltava Basin Povodí Moravy ČHMÚ